Time,TemperatureF,DewpointF,PressureIn,WindDirection,WindDirectionDegrees,WindSpeedMPH,WindSpeedGustMPH,Humidity,HourlyPrecipIn,Conditions,Clouds,dailyrainin,SolarRadiationWatts/m^2,SoftwareType,DateUTC
2013-07-14 00:00:00,56.0,39.0,-100.00,SW,220,3.0,5.0,52,0.00,,,0.00,0.000000,,2013-07-14 07:00:00,
2013-07-14 00:33:00,56.0,39.0,-100.00,SW,220,3.0,5.0,52,0.00,,,0.00,0.000000,,2013-07-14 07:33:00,
2013-07-14 00:43:00,56.0,39.0,-100.00,SW,220,3.0,5.0,52,0.00,,,0.00,0.000000,,2013-07-14 07:43:00,
2013-07-14 00:53:00,56.0,39.0,-100.00,SW,220,3.0,5.0,52,0.00,,,0.00,0.000000,,2013-07-14 07:53:00,
2013-07-14 01:00:00,58.0,42.0,-100.00,SSW,208,4.0,7.0,56,0.00,,,0.00,0.000000,,2013-07-14 08:00:00,
2013-07-14 01:22:00,58.0,42.0,-100.00,SSW,208,4.0,7.0,56,0.00,,,0.00,0.000000,,2013-07-14 08:22:00,
2013-07-14 01:32:00,58.0,42.0,-100.00,SSW,208,4.0,7.0,56,0.00,,,0.00,0.000000,,2013-07-14 08:32:00,
2013-07-14 01:42:00,58.0,42.0,-100.00,SSW,208,4.0,7.0,56,0.00,,,0.00,0.000000,,2013-07-14 08:42:00,
2013-07-14 01:53:00,58.0,42.0,-100.00,SSW,208,4.0,7.0,56,0.00,,,0.00,0.000000,,2013-07-14 08:53:00,
2013-07-14 02:00:00,55.0,35.0,-100.00,NW,305,1.0,6.0,46,0.00,,,0.00,0.000000,,2013-07-14 09:00:00,
2013-07-14 02:22:00,55.0,35.0,-100.00,NW,305,1.0,6.0,46,0.00,,,0.00,0.000000,,2013-07-14 09:22:00,
2013-07-14 02:32:00,55.0,35.0,-100.00,NW,305,1.0,6.0,46,0.00,,,0.00,0.000000,,2013-07-14 09:32:00,
2013-07-14 02:42:00,55.0,35.0,-100.00,NW,305,1.0,6.0,46,0.00,,,0.00,0.000000,,2013-07-14 09:42:00,
2013-07-14 02:53:00,55.0,35.0,-100.00,NW,305,1.0,6.0,46,0.00,,,0.00,0.000000,,2013-07-14 09:53:00,
2013-07-14 03:22:00,55.0,29.0,-100.00,NW,309,4.0,7.0,37,0.00,,,0.00,0.000000,,2013-07-14 10:22:00,
2013-07-14 03:32:00,55.0,29.0,-100.00,NW,309,4.0,7.0,37,0.00,,,0.00,0.000000,,2013-07-14 10:32:00,
2013-07-14 03:53:00,55.0,29.0,-100.00,NW,309,4.0,7.0,37,0.00,,,0.00,0.000000,,2013-07-14 10:53:00,
2013-07-14 09:00:00,60.0,39.0,-100.00,SW,229,3.0,7.0,46,0.00,,,0.00,509.000000,,2013-07-14 16:00:00,
2013-07-14 09:22:00,60.0,39.0,-100.00,SW,229,3.0,7.0,46,0.00,,,0.00,509.000000,,2013-07-14 16:22:00,
2013-07-14 09:32:00,60.0,39.0,-100.00,SW,229,3.0,7.0,46,0.00,,,0.00,509.000000,,2013-07-14 16:32:00,
2013-07-14 09:43:00,60.0,39.0,-100.00,SW,229,3.0,7.0,46,0.00,,,0.00,509.000000,,2013-07-14 16:43:00,
2013-07-14 09:53:00,60.0,39.0,-100.00,SW,229,3.0,7.0,46,0.00,,,0.00,509.000000,,2013-07-14 16:53:00,
2013-07-14 10:00:00,68.0,39.0,-100.00,SW,224,0.0,6.0,35,0.00,,,0.00,708.000000,,2013-07-14 17:00:00,
2013-07-14 10:22:00,68.0,39.0,-100.00,SW,224,0.0,6.0,35,0.00,,,0.00,708.000000,,2013-07-14 17:22:00,
2013-07-14 10:32:00,68.0,39.0,-100.00,SW,224,0.0,6.0,35,0.00,,,0.00,708.000000,,2013-07-14 17:32:00,
2013-07-14 10:43:00,68.0,39.0,-100.00,SW,224,0.0,6.0,35,0.00,,,0.00,708.000000,,2013-07-14 17:43:00,
2013-07-14 10:53:00,68.0,39.0,-100.00,SW,224,0.0,6.0,35,0.00,,,0.00,708.000000,,2013-07-14 17:53:00,
2013-07-14 11:00:00,66.0,40.0,-100.00,SW,216,4.0,10.0,39,-99.99,,,0.00,876.000000,,2013-07-14 18:00:00,
2013-07-14 11:22:00,66.0,40.0,-100.00,SW,216,4.0,10.0,39,-99.99,,,0.00,876.000000,,2013-07-14 18:22:00,
2013-07-14 11:32:00,66.0,40.0,-100.00,SW,216,4.0,10.0,39,-99.99,,,0.00,876.000000,,2013-07-14 18:32:00,
2013-07-14 11:42:00,66.0,40.0,-100.00,SW,216,4.0,10.0,39,-99.99,,,0.00,876.000000,,2013-07-14 18:42:00,
2013-07-14 11:52:00,66.0,40.0,-100.00,SW,216,4.0,10.0,39,-99.99,,,0.00,876.000000,,2013-07-14 18:52:00,
2013-07-14 12:00:00,65.0,46.0,-100.00,SW,218,7.0,13.0,51,0.00,,,0.00,995.000000,,2013-07-14 19:00:00,
2013-07-14 12:22:00,65.0,46.0,-100.00,SW,218,7.0,13.0,51,0.00,,,0.00,995.000000,,2013-07-14 19:22:00,
2013-07-14 12:32:00,65.0,46.0,-100.00,SW,218,7.0,13.0,51,0.00,,,0.00,995.000000,,2013-07-14 19:32:00,
2013-07-14 12:43:00,65.0,46.0,-100.00,SW,218,7.0,13.0,51,0.00,,,0.00,995.000000,,2013-07-14 19:43:00,
2013-07-14 12:53:00,65.0,46.0,-100.00,SW,218,7.0,13.0,51,0.00,,,0.00,995.000000,,2013-07-14 19:53:00,
2013-07-14 13:00:00,72.0,46.0,-100.00,SW,222,6.0,12.0,39,0.00,,,0.00,1061.000000,,2013-07-14 20:00:00,
2013-07-14 13:22:00,72.0,46.0,-100.00,SW,222,6.0,12.0,39,0.00,,,0.00,1061.000000,,2013-07-14 20:22:00,
2013-07-14 13:32:00,72.0,46.0,-100.00,SW,222,6.0,12.0,39,0.00,,,0.00,1061.000000,,2013-07-14 20:32:00,
2013-07-14 13:43:00,72.0,46.0,-100.00,SW,222,6.0,12.0,39,0.00,,,0.00,1061.000000,,2013-07-14 20:43:00,
2013-07-14 13:53:00,72.0,46.0,-100.00,SW,222,6.0,12.0,39,0.00,,,0.00,1061.000000,,2013-07-14 20:53:00,
2013-07-14 14:00:00,70.0,43.0,-100.00,SW,222,8.0,17.0,38,0.00,,,0.00,1075.000000,,2013-07-14 21:00:00,
2013-07-14 14:32:00,70.0,43.0,-100.00,SW,222,8.0,17.0,38,0.00,,,0.00,1075.000000,,2013-07-14 21:32:00,
2013-07-14 14:43:00,70.0,43.0,-100.00,SW,222,8.0,17.0,38,0.00,,,0.00,1075.000000,,2013-07-14 21:43:00,
2013-07-14 14:52:00,70.0,43.0,-100.00,SW,222,8.0,17.0,38,0.00,,,0.00,1075.000000,,2013-07-14 21:52:00,
2013-07-14 15:00:00,70.0,48.0,-100.00,SW,219,9.0,18.0,45,0.00,,,-99.99,1041.000000,,2013-07-14 22:00:00,
2013-07-14 15:32:00,70.0,48.0,-100.00,SW,219,9.0,18.0,45,0.00,,,-99.99,1041.000000,,2013-07-14 22:32:00,
2013-07-14 15:42:00,70.0,48.0,-100.00,SW,219,9.0,18.0,45,0.00,,,-99.99,1041.000000,,2013-07-14 22:42:00,
2013-07-14 15:53:00,70.0,48.0,-100.00,SW,219,9.0,18.0,45,0.00,,,-99.99,1041.000000,,2013-07-14 22:53:00,
2013-07-14 16:00:00,69.0,47.0,-100.00,SW,215,7.0,14.0,46,0.00,,,0.00,955.000000,,2013-07-14 23:00:00,
2013-07-14 16:32:00,69.0,47.0,-100.00,SW,215,7.0,14.0,46,0.00,,,0.00,955.000000,,2013-07-14 23:32:00,
2013-07-14 16:42:00,69.0,47.0,-100.00,SW,215,7.0,14.0,46,0.00,,,0.00,955.000000,,2013-07-14 23:42:00,
2013-07-14 16:53:00,69.0,47.0,-100.00,SW,215,7.0,14.0,46,0.00,,,0.00,955.000000,,2013-07-14 23:53:00,
2013-07-14 17:00:00,65.0,43.0,-100.00,SW,217,9.0,16.0,45,0.00,,,0.00,830.000000,,2013-07-15 00:00:00,
2013-07-14 17:22:00,65.0,43.0,-100.00,SW,217,9.0,16.0,45,0.00,,,0.00,830.000000,,2013-07-15 00:22:00,
2013-07-14 17:32:00,65.0,43.0,-100.00,SW,217,9.0,16.0,45,0.00,,,0.00,830.000000,,2013-07-15 00:32:00,
2013-07-14 17:43:00,65.0,43.0,-100.00,SW,217,9.0,16.0,45,0.00,,,0.00,830.000000,,2013-07-15 00:43:00,
2013-07-14 17:53:00,65.0,43.0,-100.00,SW,217,9.0,16.0,45,0.00,,,0.00,830.000000,,2013-07-15 00:53:00,
2013-07-14 18:00:00,62.0,45.0,-100.00,South,182,3.0,16.0,54,0.00,,,-99.99,656.000000,,2013-07-15 01:00:00,
2013-07-14 18:32:00,62.0,45.0,-100.00,South,182,3.0,16.0,54,0.00,,,-99.99,656.000000,,2013-07-15 01:32:00,
2013-07-14 18:43:00,62.0,45.0,-100.00,South,182,3.0,16.0,54,0.00,,,-99.99,656.000000,,2013-07-15 01:43:00,
2013-07-14 18:53:00,62.0,45.0,-100.00,South,182,3.0,16.0,54,0.00,,,-99.99,656.000000,,2013-07-15 01:53:00,
2013-07-14 19:00:00,57.0,43.0,-100.00,SSW,213,5.0,13.0,60,0.00,,,-99.99,468.000000,,2013-07-15 02:00:00,
2013-07-14 19:22:00,57.0,43.0,-100.00,SSW,213,5.0,13.0,60,0.00,,,-99.99,468.000000,,2013-07-15 02:22:00,
2013-07-14 19:32:00,57.0,43.0,-100.00,SSW,213,5.0,13.0,60,0.00,,,-99.99,468.000000,,2013-07-15 02:32:00,
2013-07-14 19:42:00,57.0,43.0,-100.00,SSW,213,5.0,13.0,60,0.00,,,-99.99,468.000000,,2013-07-15 02:42:00,
2013-07-14 19:53:00,57.0,43.0,-100.00,SSW,213,5.0,13.0,60,0.00,,,-99.99,468.000000,,2013-07-15 02:53:00,
2013-07-14 20:00:00,54.0,44.0,-100.00,WSW,244,9.0,14.0,68,0.00,,,0.00,47.000000,,2013-07-15 03:00:00,
2013-07-14 20:22:00,54.0,44.0,-100.00,WSW,244,9.0,14.0,68,0.00,,,0.00,47.000000,,2013-07-15 03:22:00,
2013-07-14 20:32:00,54.0,44.0,-100.00,WSW,244,9.0,14.0,68,0.00,,,0.00,47.000000,,2013-07-15 03:32:00,
2013-07-14 20:43:00,54.0,44.0,-100.00,WSW,244,9.0,14.0,68,0.00,,,0.00,47.000000,,2013-07-15 03:43:00,
2013-07-14 20:53:00,54.0,44.0,-100.00,WSW,244,9.0,14.0,68,0.00,,,0.00,47.000000,,2013-07-15 03:53:00,
2013-07-14 21:00:00,51.0,44.0,-100.00,WSW,242,7.0,12.0,76,0.00,,,0.00,17.000000,,2013-07-15 04:00:00,
2013-07-14 21:33:00,51.0,44.0,-100.00,WSW,242,7.0,12.0,76,0.00,,,0.00,17.000000,,2013-07-15 04:33:00,
2013-07-14 21:42:00,51.0,44.0,-100.00,WSW,242,7.0,12.0,76,0.00,,,0.00,17.000000,,2013-07-15 04:42:00,
2013-07-14 21:53:00,51.0,44.0,-100.00,WSW,242,7.0,12.0,76,0.00,,,0.00,17.000000,,2013-07-15 04:53:00,
2013-07-14 22:00:00,51.0,40.0,-100.00,West,261,3.0,11.0,66,0.00,,,0.00,2.000000,,2013-07-15 05:00:00,
2013-07-14 22:32:00,51.0,40.0,-100.00,West,261,3.0,11.0,66,0.00,,,0.00,2.000000,,2013-07-15 05:32:00,
2013-07-14 22:43:00,51.0,40.0,-100.00,West,261,3.0,11.0,66,0.00,,,0.00,2.000000,,2013-07-15 05:43:00,
2013-07-14 22:53:00,51.0,40.0,-100.00,West,261,3.0,11.0,66,0.00,,,0.00,2.000000,,2013-07-15 05:53:00,
2013-07-14 23:00:00,53.0,44.0,-100.00,NE,46,6.0,12.0,71,0.00,,,0.00,0.000000,,2013-07-15 06:00:00,
2013-07-14 23:22:00,53.0,44.0,-100.00,NE,46,6.0,12.0,71,0.00,,,0.00,0.000000,,2013-07-15 06:22:00,
2013-07-14 23:32:00,53.0,44.0,-100.00,NE,46,6.0,12.0,71,0.00,,,0.00,0.000000,,2013-07-15 06:32:00,
2013-07-14 23:42:00,53.0,44.0,-100.00,NE,46,6.0,12.0,71,0.00,,,0.00,0.000000,,2013-07-15 06:42:00,
2013-07-14 23:53:00,53.0,44.0,-100.00,NE,46,6.0,12.0,71,0.00,,,0.00,0.000000,,2013-07-15 06:53:00,